Volver al catálogo

STARLINK-32505

ActivoComunicacionesVLEO
NORAD 63085·PAYLOAD·🇺🇸 United States

Lanzado Feb 23, 2025 desde Vandenberg Space Force Base

Loading…

Próximos Pases (próximas 24 horas)

TLE

ActualizadoSource: CelesTrak SupGP

Época: Sep 15, 2026, 03:10 UTC

1 63085C 25037J   26258.13243056 -.00051230  00000+0 -17823-2 0  2589
2 63085  70.0016 235.3733 0003128 268.3933 124.7894 15.29602665    10

Sigue STARLINK-32505 en tiempo real con AllMySat

Download on the App Store